Home   Weather   Windhoek   Past weeks
Flag for Namibia

Past Weather in Windhoek, Namibia — Yesterday and Last 2 Weeks

Now
66 °F

Sunny.


Feels Like: 66 °F
Forecast: 73 / 42 °F
Wind: 8 mph from Northeast

Location: Windhoek

Current Time: Jun 19, 2019 at 1:12:19 pm

Latest Report: Jun 19, 2019 at 12:00 pm


Visibility: 10 mi

Pressure: 30.45 "Hg (25.02 "Hg at 1680m altitude)

Humidity: 26%

Dew Point: 30 °F

Location of WindhoekLocation

Past Weather in Windhoek — Graph

°F

Windhoek Temperature Yesterday

Maximum temperature yesterday: 72 °F (at 3:00 pm)
Minimum temperature yesterday: 50 °F (at 5:00 am)
Average temperature yesterday: 60 °F

High & Low Weather Summary for the Past Weeks

 TemperatureHumidityPressure
High81 °F (Jun 5, 4:00 pm)70% (Jun 16, 8:00 am)30.48 "Hg (Jun 16, 8:00 am)
Low41 °F (Jun 16, 8:00 am)7% (Jun 5, 4:00 pm)30.24 "Hg (Jun 5, 5:00 pm)
Average63 °F25%30.37 "Hg
* Reported Jun 4 12:00 pm — Jun 19 12:00 pm, Windhoek. Weather by CustomWeather, © 2019

Note: Actual official high and low records may vary slightly from our data, if they occured in-between our weather recording intervals... More about our weather records

Advertising

Windhoek Weather History for the Previous 24 Hours

Scroll right to see more
 ConditionsComfort  
Time TempWeatherWind HumidityBarometerVisibility
12:00 pm
Wed, Jun 19
66 °FSunny.8 mph26%30.45 "Hg10 mi
11:00 am64 °FSunny.12 mph28%30.45 "Hg10 mi
10:00 am61 °FSunny.8 mph31%30.45 "Hg10 mi
9:00 am54 °FSunny.5 mph41%30.45 "Hg10 mi
8:00 am46 °FSunny.6 mph53%30.42 "Hg10 mi
7:00 am46 °FClear.1 mph53%30.39 "Hg10 mi
6:00 am46 °FCool.3 mph53%30.39 "HgN/A
5:00 am48 °FCool.7 mph50%30.39 "HgN/A
4:00 am50 °FCool.6 mph47%30.39 "HgN/A
3:00 am52 °FCool.8 mph44%30.39 "HgN/A
2:00 am54 °FCool.8 mph41%30.42 "HgN/A
1:00 am55 °FRefreshingly cool.7 mph41%30.42 "HgN/A
12:00 am55 °FRefreshingly cool.7 mph41%30.42 "HgN/A
11:00 pm
Tue, Jun 18
55 °FRefreshingly cool.7 mph41%30.42 "HgN/A
10:00 pm57 °FRefreshingly cool.7 mph39%30.42 "HgN/A
9:00 pm59 °FRefreshingly cool.8 mph36%30.42 "HgN/A
8:00 pm61 °FRefreshingly cool.6 mph34%30.39 "HgN/A
7:00 pm63 °FMild.5 mph32%30.39 "HgN/A
6:00 pm68 °FSunny.7 mph26%30.36 "Hg10 mi
5:00 pm72 °FSunny.8 mph23%30.36 "Hg10 mi
4:00 pm72 °FSunny.8 mph23%30.36 "Hg10 mi
3:00 pm72 °FSunny.9 mph23%30.36 "Hg10 mi
2:00 pm70 °FSunny.6 mph25%30.36 "Hg10 mi
1:00 pm70 °FSunny.6 mph25%30.42 "Hg10 mi
Weather by CustomWeather, © 2019

See weather overview